{"data":{"norad_id":58725,"intl_designator":"2024-002W","name":"STARLINK-30856","alt_names":[],"object_type":"PAYLOAD","status":"ACTIVE","operator":null,"country":"US","launch_date":"2024-01-03","launch_site_code":"AFWTR","launch_vehicle":null,"mission":null,"orbit_class":"UNKNOWN","rcs_meters":null,"size_class":null,"mass_kg":null,"dimensions":null,"purposes":["comms"],"wikipedia_slug":null,"has_3d_model":false,"image_url":null,"decayed_at":null,"tle_current":{"epoch":"2026-05-25T05:19:55.182144Z","epoch_age_seconds":49147,"freshness":"FRESH","line1":"1 58725U 24002W   26145.22216646  .00000812  00000+0  39544-4 0  9991","line2":"2 58725  53.1610 234.3864 0000908 105.1552 254.9549 15.30193280133738","mean_motion":15.3019328,"eccentricity":9.08e-5,"inclination_deg":53.161,"raan_deg":234.3864,"arg_perigee_deg":105.1552,"mean_anomaly_deg":254.9549,"bstar":3.9544e-5,"rev_number":13373,"period_min":94.105758979676,"perigee_km":474.61284801168,"apogee_km":475.85742039125,"semimajor_km":6853.3721342015,"source":"CELESTRAK","updated_at":"2026-05-25T13:38:18.718917Z"}}}